Location: Arnold
(38.6403°N, 100.0462°W)
Time: 21:09:39
(UTC-06:00)

Envisat - Visible Passes

Search period start: 10 December 2018 00:00
Search period end: 20 December 2018 00:00
Orbit: 764 x 766 km, 98.2° (Epoch: 10 December)

Date Brightness Start Highest point End Pass type
(mag) Time Alt. Az. Time Alt. Az. Time Alt. Az.
10 Dec 3.1 19:03:48 10° SE 19:08:38 47° ENE 19:13:29 10° N visible
10 Dec 5.4 20:44:23 10° SW 20:47:52 18° W 20:51:22 10° NW visible
11 Dec 5.8 07:15:05 10° NE 07:18:31 18° E 07:21:56 10° SE visible
11 Dec 4.1 18:28:22 10° ESE 18:32:10 22° ENE 18:35:59 10° NNE visible
11 Dec 4.1 20:06:06 10° S 20:10:53 42° W 20:15:42 10° NNW visible
12 Dec 2.8 19:29:01 10° SSE 19:34:06 84° ENE 19:39:11 10° NNW visible
13 Dec 3.4 18:52:52 10° SE 18:57:29 37° ENE 19:02:08 10° N visible
13 Dec 5.1 20:32:34 10° SSW 20:36:35 24° W 20:40:37 10° NW visible
14 Dec 6.0 07:04:36 10° ENE 07:07:13 14° E 07:09:49 10° ESE visible
14 Dec 4.3 18:17:50 10° ESE 18:21:06 17° ENE 18:24:21 10° NNE visible
14 Dec 3.6 19:54:42 10° S 19:59:39 54° W 20:04:38 10° NNW visible
15 Dec 2.8 19:17:54 10° SSE 19:22:55 66° ENE 19:27:58 10° N visible
15 Dec 5.8 21:00:07 10° WSW 21:02:22 13° W 21:04:38 10° WNW visible
16 Dec 3.7 18:42:02 10° SE 18:46:23 30° ENE 18:50:44 10° N visible
16 Dec 4.7 20:20:54 10° SSW 20:25:18 30° W 20:29:45 10° NW visible
17 Dec 6.4 06:54:53 10° ENE 06:55:53 11° E 06:56:53 10° E visible
17 Dec 4.5 18:07:32 10° E 18:10:03 14° ENE 18:12:33 10° NNE visible
17 Dec 3.2 19:43:23 10° S 19:48:26 69° WSW 19:53:31 10° NNW visible
18 Dec 3.0 19:06:52 10° SSE 19:11:46 52° ENE 19:16:41 10° N visible
18 Dec 5.6 20:47:52 10° SW 20:51:03 17° W 20:54:17 10° NW visible
19 Dec 5.8 07:18:02 10° NE 07:21:43 20° E 07:25:22 10° SE visible
19 Dec 4.0 18:31:18 10° ESE 18:35:17 24° ENE 18:39:15 10° NNE visible
19 Dec 4.3 20:09:21 10° SSW 20:14:03 38° W 20:18:47 10° NNW visible
